THY9XJ LTFM-LTFH

Flight info

Callsign THY9XJ
Flight time 1h 0m
Altitude 35000
Route EKAWE UT641 ABSAX UN743 GAKSU UT310 SIN/N0409F270 W86 BAFRA
Aircraft A321/M-SDE3FGHIRWY/LB1

Departure

Time 2026-05-07 10:06
Airport İstanbul Airport (LTFM)

Arrival

Time 2026-05-07 11:07
Airport Samsun-Çarşamba Airport (LTFH)
Time Latitude Longitude Altitude Speed Heading
2026-05-07 09:38 41.26065 28.74925 334 ft 0 kts 251°
2026-05-07 09:56 41.26072 28.74954 329 ft 4 kts 251°
2026-05-07 09:57 41.26081 28.74988 330 ft 4 kts 251°
2026-05-07 09:57 41.26088 28.75017 329 ft 4 kts 264°
2026-05-07 09:57 41.26084 28.75045 330 ft 4 kts 328°
2026-05-07 09:57 41.26060 28.75055 330 ft 4 kts 349°
2026-05-07 09:58 41.26049 28.75058 332 ft 0 kts 341°
2026-05-07 10:01 41.26052 28.75056 330 ft 1 kts 341°
2026-05-07 10:02 41.26067 28.75050 329 ft 4 kts 341°
2026-05-07 10:02 41.26102 28.75034 331 ft 7 kts 341°
2026-05-07 10:02 41.26156 28.75009 331 ft 9 kts 341°
2026-05-07 10:02 41.26211 28.74998 332 ft 8 kts 10°
2026-05-07 10:03 41.26242 28.75059 332 ft 10 kts 84°
2026-05-07 10:03 41.26244 28.75146 334 ft 8 kts 89°
2026-05-07 10:03 41.26245 28.75224 334 ft 9 kts 89°
2026-05-07 10:03 41.26246 28.75311 334 ft 10 kts 89°
2026-05-07 10:04 41.26247 28.75401 334 ft 10 kts 89°
2026-05-07 10:04 41.26249 28.75485 334 ft 9 kts 89°
2026-05-07 10:04 41.26250 28.75570 334 ft 10 kts 89°
2026-05-07 10:04 41.26262 28.75650 331 ft 9 kts 49°
2026-05-07 10:05 41.26320 28.75665 332 ft 4 kts 357°
2026-05-07 10:05 41.26324 28.75665 333 ft 1 kts 357°
2026-05-07 10:05 41.26493 28.75662 334 ft 61 kts 360°
2026-05-07 10:05 41.27163 28.75650 332 ft 128 kts 359°
2026-05-07 10:06 41.28210 28.75628 419 ft 168 kts 360°
2026-05-07 10:06 41.29398 28.75592 1008 ft 173 kts
2026-05-07 10:06 41.30514 28.76137 1634 ft 178 kts 38°
2026-05-07 10:06 41.31547 28.77156 1985 ft 194 kts 34°
2026-05-07 10:07 41.32746 28.78189 2203 ft 216 kts 33°
2026-05-07 10:07 41.33808 28.79723 2289 ft 241 kts 64°
2026-05-07 10:07 41.34544 28.81851 2621 ft 262 kts 64°
2026-05-07 10:07 41.35377 28.84061 3304 ft 270 kts 62°
2026-05-07 10:08 41.36253 28.86298 4051 ft 275 kts 61°
2026-05-07 10:08 41.37145 28.88560 4861 ft 277 kts 60°
2026-05-07 10:08 41.38042 28.90852 5641 ft 281 kts 60°
2026-05-07 10:08 41.38943 28.93174 6427 ft 284 kts 60°
2026-05-07 10:09 41.39854 28.95541 7142 ft 288 kts 60°
2026-05-07 10:09 41.40765 28.97922 7925 ft 289 kts 60°
2026-05-07 10:09 41.41679 29.00317 8715 ft 291 kts 60°
2026-05-07 10:09 41.42596 29.02726 9510 ft 292 kts 60°
2026-05-07 10:10 41.43507 29.05125 10226 ft 297 kts 60°
2026-05-07 10:10 41.44490 29.07706 10410 ft 320 kts 60°
2026-05-07 10:10 41.45518 29.10401 10616 ft 340 kts 60°
2026-05-07 10:10 41.46617 29.13294 11168 ft 347 kts 60°
2026-05-07 10:11 41.47708 29.16179 11841 ft 350 kts 61°
2026-05-07 10:11 41.48805 29.19087 12533 ft 353 kts 61°
2026-05-07 10:11 41.49900 29.21996 13221 ft 355 kts 61°
2026-05-07 10:11 41.50649 29.23987 13676 ft 357 kts 61°
2026-05-07 10:12 41.51769 29.26964 14324 ft 360 kts 61°
2026-05-07 10:12 41.53270 29.30947 15110 ft 364 kts 60°
2026-05-07 10:12 41.54412 29.33982 15720 ft 367 kts 60°
2026-05-07 10:12 41.55189 29.36047 16132 ft 369 kts 60°
2026-05-07 10:13 41.56346 29.39129 16743 ft 373 kts 60°
2026-05-07 10:13 41.57514 29.42234 17328 ft 376 kts 60°
2026-05-07 10:13 41.58679 29.45331 17918 ft 379 kts 59°
2026-05-07 10:13 41.59881 29.48531 18505 ft 382 kts 59°
2026-05-07 10:14 41.61077 29.51723 19016 ft 385 kts 59°
2026-05-07 10:14 41.62262 29.54902 19550 ft 388 kts 59°
2026-05-07 10:14 41.63468 29.58145 20049 ft 391 kts 59°
2026-05-07 10:14 41.64684 29.61417 20568 ft 394 kts 59°
2026-05-07 10:15 41.65905 29.64693 21082 ft 397 kts 59°
2026-05-07 10:15 41.67150 29.68027 21591 ft 400 kts 59°
2026-05-07 10:15 41.68403 29.71382 22090 ft 404 kts 59°
2026-05-07 10:15 41.69657 29.74749 22568 ft 407 kts 59°
2026-05-07 10:16 41.70920 29.78150 23043 ft 410 kts 59°
2026-05-07 10:16 41.72205 29.81625 23532 ft 412 kts 59°
2026-05-07 10:16 41.73478 29.85073 23961 ft 415 kts 59°
2026-05-07 10:16 41.74740 29.88499 24337 ft 417 kts 59°
2026-05-07 10:17 41.76026 29.91987 24689 ft 420 kts 59°
2026-05-07 10:17 41.77350 29.95579 25075 ft 423 kts 59°
2026-05-07 10:17 41.78636 29.99068 25428 ft 425 kts 59°
2026-05-07 10:17 41.79953 30.02646 25785 ft 428 kts 59°
2026-05-07 10:18 41.81274 30.06244 26156 ft 431 kts 58°
2026-05-07 10:18 41.82600 30.09869 26516 ft 433 kts 58°
2026-05-07 10:18 41.83932 30.13507 26898 ft 436 kts 58°
2026-05-07 10:18 41.85268 30.17153 27220 ft 438 kts 58°
2026-05-07 10:19 41.86618 30.20850 27557 ft 441 kts 58°
2026-05-07 10:19 41.87979 30.24585 27888 ft 444 kts 58°
2026-05-07 10:19 41.89335 30.28311 28204 ft 446 kts 58°
2026-05-07 10:19 41.90705 30.32078 28535 ft 449 kts 58°
2026-05-07 10:20 41.92075 30.35843 28841 ft 452 kts 58°
2026-05-07 10:20 41.93466 30.39675 29151 ft 454 kts 58°
2026-05-07 10:20 41.94848 30.43497 29503 ft 456 kts 58°
2026-05-07 10:20 41.96231 30.47332 29839 ft 458 kts 58°
2026-05-07 10:21 41.97624 30.51199 30149 ft 460 kts 58°
2026-05-07 10:21 41.98855 30.55212 30422 ft 470 kts 66°
2026-05-07 10:21 41.99611 30.59537 30696 ft 479 kts 76°
2026-05-07 10:21 41.99847 30.64033 31044 ft 485 kts 85°
2026-05-07 10:22 41.99848 30.68562 31463 ft 483 kts 84°
2026-05-07 10:22 41.99868 30.73057 31910 ft 480 kts 84°
2026-05-07 10:22 41.99899 30.77543 32350 ft 477 kts 84°
2026-05-07 10:22 41.99933 30.82003 32771 ft 476 kts 84°
2026-05-07 10:23 41.99967 30.86406 33146 ft 474 kts 84°
2026-05-07 10:23 41.99997 30.90848 33573 ft 472 kts 84°
2026-05-07 10:23 42.00023 30.95273 33970 ft 471 kts 84°
2026-05-07 10:23 42.00077 30.99670 34314 ft 468 kts 80°
2026-05-07 10:24 42.00497 31.03983 34615 ft 460 kts 72°
2026-05-07 10:24 42.01312 31.08122 34887 ft 456 kts 68°
2026-05-07 10:24 42.02198 31.12222 35114 ft 457 kts 69°
2026-05-07 10:25 42.03935 31.20389 35170 ft 452 kts 69°
2026-05-07 10:25 42.05653 31.28524 35166 ft 451 kts 69°
2026-05-07 10:26 42.07367 31.36652 35164 ft 451 kts 69°
2026-05-07 10:26 42.09077 31.44790 35165 ft 451 kts 69°
2026-05-07 10:27 42.10784 31.52929 35170 ft 451 kts 69°
2026-05-07 10:27 42.12486 31.61071 35173 ft 452 kts 69°
2026-05-07 10:28 42.14187 31.69231 35187 ft 452 kts 69°
2026-05-07 10:28 42.15877 31.77395 35184 ft 453 kts 70°
2026-05-07 10:29 42.17561 31.85571 35184 ft 453 kts 70°
2026-05-07 10:29 42.19257 31.93779 35185 ft 453 kts 70°
2026-05-07 10:30 42.21770 32.06059 35182 ft 453 kts 70°
2026-05-07 10:30 42.23436 32.14260 35199 ft 453 kts 70°
2026-05-07 10:31 42.25102 32.22456 35203 ft 452 kts 70°
2026-05-07 10:31 42.26916 32.30513 35196 ft 451 kts 68°
2026-05-07 10:32 42.28847 32.38637 35193 ft 451 kts 68°
2026-05-07 10:32 42.30719 32.46666 35189 ft 451 kts 69°
2026-05-07 10:33 42.32486 32.54800 35195 ft 453 kts 75°
2026-05-07 10:33 42.32788 32.63342 35188 ft 461 kts 94°
2026-05-07 10:34 42.31827 32.71928 35194 ft 462 kts 95°
2026-05-07 10:34 42.30862 32.80520 35190 ft 462 kts 95°
2026-05-07 10:35 42.29888 32.89100 35179 ft 462 kts 95°
2026-05-07 10:35 42.28898 32.97678 35186 ft 462 kts 96°
2026-05-07 10:36 42.27901 33.06242 35214 ft 462 kts 96°
2026-05-07 10:36 42.26898 33.14815 35182 ft 462 kts 96°
2026-05-07 10:37 42.25897 33.23390 35169 ft 462 kts 96°
2026-05-07 10:37 42.24890 33.31978 35183 ft 463 kts 96°
2026-05-07 10:38 42.23870 33.40544 35191 ft 462 kts 96°
2026-05-07 10:38 42.22843 33.49122 35198 ft 462 kts 96°
2026-05-07 10:39 42.21824 33.57618 35194 ft 461 kts 96°
2026-05-07 10:39 42.20788 33.66179 35192 ft 461 kts 96°
2026-05-07 10:40 42.19740 33.74762 35193 ft 461 kts 96°
2026-05-07 10:40 42.18689 33.83276 35196 ft 460 kts 96°
2026-05-07 10:41 42.17636 33.91796 35194 ft 460 kts 96°
2026-05-07 10:41 42.16576 34.00309 35189 ft 460 kts 96°
2026-05-07 10:42 42.16053 34.04501 35009 ft 461 kts 96°
2026-05-07 10:42 42.15519 34.08767 34763 ft 460 kts 96°
2026-05-07 10:42 42.14985 34.13009 34531 ft 460 kts 96°
2026-05-07 10:42 42.14449 34.17260 34294 ft 460 kts 95°
2026-05-07 10:43 42.13916 34.21501 34056 ft 460 kts 95°
2026-05-07 10:43 42.13374 34.25808 33786 ft 460 kts 95°
2026-05-07 10:43 42.12843 34.30002 33397 ft 458 kts 96°
2026-05-07 10:43 42.12308 34.34183 32877 ft 455 kts 96°
2026-05-07 10:44 42.11765 34.38395 32353 ft 452 kts 96°
2026-05-07 10:44 42.11227 34.42550 31863 ft 448 kts 96°
2026-05-07 10:44 42.10691 34.46663 31348 ft 445 kts 96°
2026-05-07 10:44 42.10134 34.50807 30319 ft 451 kts 97°
2026-05-07 10:45 42.09564 34.54920 29741 ft 440 kts 97°
2026-05-07 10:45 42.09182 34.57638 29400 ft 437 kts 97°
2026-05-07 10:45 42.08618 34.61632 28897 ft 432 kts 97°
2026-05-07 10:45 42.08059 34.65571 28397 ft 428 kts 97°
2026-05-07 10:46 42.07503 34.69496 27915 ft 423 kts 97°
2026-05-07 10:46 42.06962 34.73359 27444 ft 419 kts 97°
2026-05-07 10:46 42.06424 34.77207 26971 ft 415 kts 98°
2026-05-07 10:46 42.05890 34.81004 26511 ft 411 kts 98°
2026-05-07 10:47 42.05360 34.84773 26083 ft 407 kts 98°
2026-05-07 10:47 42.04848 34.88451 25673 ft 404 kts 98°
2026-05-07 10:47 42.04344 34.92203 25255 ft 401 kts 97°
2026-05-07 10:47 42.03857 34.95889 24836 ft 398 kts 98°
2026-05-07 10:48 42.03378 34.99530 24439 ft 396 kts 98°
2026-05-07 10:48 42.02891 35.03177 24024 ft 395 kts 99°
2026-05-07 10:48 42.02115 35.06722 23592 ft 395 kts 110°
2026-05-07 10:48 42.00870 35.10004 23144 ft 393 kts 122°
2026-05-07 10:49 41.99258 35.12953 22708 ft 390 kts 127°
2026-05-07 10:49 41.97645 35.15760 22318 ft 386 kts 127°
2026-05-07 10:49 41.96036 35.18566 21875 ft 383 kts 127°
2026-05-07 10:49 41.94397 35.21434 21436 ft 379 kts 127°
2026-05-07 10:50 41.92801 35.24230 20986 ft 376 kts 127°
2026-05-07 10:50 41.91231 35.26974 20545 ft 373 kts 127°
2026-05-07 10:50 41.89657 35.29724 20108 ft 370 kts 127°
2026-05-07 10:50 41.88090 35.32461 19668 ft 368 kts 127°
2026-05-07 10:51 41.86514 35.35213 19223 ft 366 kts 127°
2026-05-07 10:51 41.84991 35.37871 18790 ft 364 kts 127°
2026-05-07 10:51 41.83445 35.40560 18337 ft 362 kts 127°
2026-05-07 10:51 41.81913 35.43222 17880 ft 359 kts 127°
2026-05-07 10:52 41.80393 35.45858 17438 ft 356 kts 127°
2026-05-07 10:52 41.78891 35.48461 17013 ft 352 kts 127°
2026-05-07 10:52 41.77394 35.51049 16585 ft 349 kts 127°
2026-05-07 10:52 41.75914 35.53604 16162 ft 346 kts 127°
2026-05-07 10:53 41.74441 35.56149 15746 ft 343 kts 127°
2026-05-07 10:53 41.72986 35.58663 15342 ft 341 kts 127°
2026-05-07 10:53 41.71538 35.61166 14918 ft 339 kts 127°
2026-05-07 10:53 41.70097 35.63652 14503 ft 337 kts 127°
2026-05-07 10:54 41.68662 35.66127 14093 ft 335 kts 127°
2026-05-07 10:54 41.67238 35.68578 13652 ft 333 kts 127°
2026-05-07 10:54 41.65823 35.71011 13245 ft 330 kts 127°
2026-05-07 10:54 41.64418 35.73425 12814 ft 328 kts 127°
2026-05-07 10:55 41.63025 35.75820 12424 ft 325 kts 128°
2026-05-07 10:55 41.61635 35.78206 12012 ft 323 kts 128°
2026-05-07 10:55 41.60262 35.80559 11622 ft 320 kts 128°
2026-05-07 10:55 41.58894 35.82901 11220 ft 319 kts 128°
2026-05-07 10:56 41.57535 35.85228 10825 ft 317 kts 129°
2026-05-07 10:56 41.56179 35.87548 10443 ft 316 kts 129°
2026-05-07 10:56 41.54848 35.89824 10304 ft 305 kts 129°
2026-05-07 10:56 41.53558 35.92031 10054 ft 299 kts 129°
2026-05-07 10:57 41.52289 35.94198 9805 ft 295 kts 129°
2026-05-07 10:57 41.51089 35.96438 9338 ft 298 kts 119°
2026-05-07 10:57 41.50306 35.98989 8876 ft 299 kts 108°
2026-05-07 10:57 41.49701 36.01622 8577 ft 296 kts 108°
2026-05-07 10:58 41.49098 36.04226 8275 ft 293 kts 107°
2026-05-07 10:58 41.48493 36.06828 7855 ft 290 kts 108°
2026-05-07 10:58 41.47896 36.09387 7278 ft 289 kts 108°
2026-05-07 10:58 41.47298 36.11957 6667 ft 290 kts 108°
2026-05-07 10:59 41.46707 36.14494 6271 ft 282 kts 108°
2026-05-07 10:59 41.46135 36.16950 5929 ft 273 kts 108°
2026-05-07 10:59 41.45579 36.19338 5557 ft 266 kts 108°
2026-05-07 10:59 41.45039 36.21656 5205 ft 259 kts 108°
2026-05-07 11:00 41.44510 36.23912 4870 ft 252 kts 108°
2026-05-07 11:00 41.43991 36.26106 4502 ft 245 kts 108°
2026-05-07 11:00 41.43483 36.28245 4144 ft 239 kts 107°
2026-05-07 11:00 41.42989 36.30333 3803 ft 233 kts 108°
2026-05-07 11:01 41.42511 36.32350 3482 ft 224 kts 108°
2026-05-07 11:01 41.41892 36.34189 3328 ft 217 kts 129°
2026-05-07 11:01 41.40823 36.35595 3224 ft 216 kts 137°
2026-05-07 11:01 41.39739 36.36980 3123 ft 215 kts 135°
2026-05-07 11:02 41.38678 36.38294 3040 ft 199 kts 136°
2026-05-07 11:02 41.37747 36.39514 3022 ft 177 kts 134°
2026-05-07 11:02 41.36922 36.40650 2954 ft 167 kts 133°
2026-05-07 11:02 41.36132 36.41752 2790 ft 163 kts 133°
2026-05-07 11:03 41.35358 36.42836 2593 ft 161 kts 133°
2026-05-07 11:03 41.34593 36.43909 2381 ft 159 kts 132°
2026-05-07 11:03 41.33835 36.44971 2173 ft 158 kts 131°
2026-05-07 11:03 41.33093 36.46011 1999 ft 149 kts 129°
2026-05-07 11:04 41.32391 36.46993 1767 ft 144 kts 130°
2026-05-07 11:04 41.31702 36.47959 1565 ft 141 kts 129°
2026-05-07 11:04 41.31036 36.48892 1369 ft 139 kts 129°
2026-05-07 11:04 41.30369 36.49826 1185 ft 139 kts 133°
2026-05-07 11:05 41.29707 36.50754 1000 ft 138 kts 130°
2026-05-07 11:05 41.29041 36.51685 807 ft 140 kts 132°
2026-05-07 11:05 41.28565 36.52352 682 ft 138 kts 130°
2026-05-07 11:05 41.27881 36.53308 493 ft 137 kts 134°
2026-05-07 11:06 41.27229 36.54220 317 ft 135 kts 131°
2026-05-07 11:06 41.26580 36.55129 119 ft 139 kts 129°
2026-05-07 11:06 41.25936 36.56023 26 ft 123 kts 131°
2026-05-07 11:06 41.25472 36.56682 10 ft 74 kts 134°
2026-05-07 11:07 41.25232 36.57013 9 ft 39 kts 133°
2026-05-07 11:07 41.25067 36.57251 12 ft 29 kts 131°
2026-05-07 11:07 41.24945 36.57415 13 ft 22 kts 135°
2026-05-07 11:07 41.24839 36.57563 11 ft 24 kts 133°
2026-05-07 11:08 41.24750 36.57686 11 ft 16 kts 134°
2026-05-07 11:08 41.24670 36.57796 11 ft 17 kts 134°
2026-05-07 11:08 41.24603 36.57884 11 ft 10 kts 143°
2026-05-07 11:08 41.24541 36.57914 12 ft 9 kts 154°
2026-05-07 11:09 41.24550 36.57948 12 ft 5 kts 338°
2026-05-07 11:09 41.24590 36.57902 13 ft 10 kts 314°
2026-05-07 11:09 41.24648 36.57821 12 ft 14 kts 314°
2026-05-07 11:09 41.24723 36.57718 11 ft 17 kts 314°
2026-05-07 11:10 41.24812 36.57596 11 ft 20 kts 313°
2026-05-07 11:10 41.24912 36.57456 13 ft 22 kts 313°
2026-05-07 11:10 41.25023 36.57302 12 ft 24 kts 314°
2026-05-07 11:10 41.25144 36.57133 11 ft 26 kts 313°
2026-05-07 11:11 41.25272 36.56956 9 ft 27 kts 314°
2026-05-07 11:11 41.25405 36.56773 8 ft 25 kts 312°
2026-05-07 11:11 41.25514 36.56616 9 ft 23 kts 313°
2026-05-07 11:11 41.25616 36.56472 10 ft 23 kts 314°
2026-05-07 11:12 41.25728 36.56318 9 ft 24 kts 314°
2026-05-07 11:12 41.25813 36.56200 28 ft 17 kts 314°
2026-05-07 11:12 41.25905 36.56074 27 ft 20 kts 313°
2026-05-07 11:12 41.25988 36.55956 27 ft 16 kts 312°
2026-05-07 11:13 41.26010 36.55844 24 ft 10 kts 249°
2026-05-07 11:13 41.25967 36.55778 25 ft 9 kts 224°
2026-05-07 11:13 41.25919 36.55718 27 ft 10 kts 223°
2026-05-07 11:13 41.25879 36.55643 25 ft 10 kts 270°
2026-05-07 11:14 41.25912 36.55579 25 ft 1 kts 313°
2026-05-07 11:14 41.25923 36.55563 25 ft 3 kts 313°
2026-05-07 11:14 41.25944 36.55535 25 ft 5 kts 314°
2026-05-07 11:14 41.25962 36.55508 25 ft 4 kts 307°
2026-05-07 11:15 41.25961 36.55470 25 ft 4 kts 247°
2026-05-07 11:15 41.25946 36.55446 25 ft 4 kts 226°
2026-05-07 11:15 41.25933 36.55429 25 ft 1 kts 224°
2026-05-07 11:15 41.25928 36.55423 25 ft 0 kts 224°